Year,Month,Day,Hour,Minute,Value (Times are PST for temperature in C)
2017,04,10,00,00,8.50
2017,04,10,00,01,8.50
2017,04,10,00,02,8.50
2017,04,10,00,03,8.50
2017,04,10,00,04,8.50
2017,04,10,00,05,8.50
2017,04,10,00,06,8.50
2017,04,10,00,07,8.40
2017,04,10,00,08,8.40
2017,04,10,00,09,8.40
2017,04,10,00,10,8.40
2017,04,10,00,11,8.40
2017,04,10,00,12,8.40
2017,04,10,00,13,8.40
2017,04,10,00,14,8.40
2017,04,10,00,15,8.40
2017,04,10,00,16,8.40
2017,04,10,00,17,8.40
2017,04,10,00,18,8.40
2017,04,10,00,19,8.40
2017,04,10,00,20,8.40
2017,04,10,00,21,8.40
2017,04,10,00,22,8.40
2017,04,10,00,23,8.40
2017,04,10,00,24,8.40
2017,04,10,00,25,8.40
2017,04,10,00,26,8.40
2017,04,10,00,27,8.40
2017,04,10,00,28,8.40
2017,04,10,00,29,8.40
2017,04,10,00,30,8.40
2017,04,10,00,31,8.40
2017,04,10,00,32,8.40
2017,04,10,00,33,8.40
2017,04,10,00,34,8.40
2017,04,10,00,35,8.40
2017,04,10,00,36,8.50
2017,04,10,00,37,8.50
2017,04,10,00,38,8.50
2017,04,10,00,39,8.50
2017,04,10,00,40,8.60
2017,04,10,00,41,8.60
2017,04,10,00,42,8.60
2017,04,10,00,43,8.60
2017,04,10,00,44,8.70
2017,04,10,00,45,8.70
2017,04,10,00,46,8.70
2017,04,10,00,47,8.70
2017,04,10,00,48,8.70
2017,04,10,00,49,8.70
2017,04,10,00,50,8.70
2017,04,10,00,51,8.70
2017,04,10,00,52,8.70
2017,04,10,00,53,8.70
2017,04,10,00,54,8.70
2017,04,10,00,55,8.70
2017,04,10,00,56,8.80
2017,04,10,00,57,8.80
2017,04,10,00,58,8.80
2017,04,10,00,59,8.80
2017,04,10,01,00,8.80
2017,04,10,01,01,8.80
2017,04,10,01,02,8.80
2017,04,10,01,03,8.90
2017,04,10,01,04,8.90
2017,04,10,01,05,8.90
2017,04,10,01,06,8.90
2017,04,10,01,07,9.00
2017,04,10,01,08,9.00
2017,04,10,01,09,9.00
2017,04,10,01,10,9.00
2017,04,10,01,11,9.10
2017,04,10,01,12,9.10
2017,04,10,01,13,9.10
2017,04,10,01,14,9.10
2017,04,10,01,15,9.10
2017,04,10,01,16,9.10
2017,04,10,01,17,9.10
2017,04,10,01,18,9.10
2017,04,10,01,19,9.10
2017,04,10,01,20,9.00
2017,04,10,01,21,9.00
2017,04,10,01,22,9.00
2017,04,10,01,23,8.90
2017,04,10,01,24,8.90
2017,04,10,01,25,8.90
2017,04,10,01,26,8.80
2017,04,10,01,27,8.80
2017,04,10,01,28,8.80
2017,04,10,01,29,8.80
2017,04,10,01,30,8.80
2017,04,10,01,31,8.80
2017,04,10,01,32,8.80
2017,04,10,01,33,8.80
2017,04,10,01,34,8.80
2017,04,10,01,35,8.70
2017,04,10,01,36,8.70
2017,04,10,01,37,8.70
2017,04,10,01,38,8.70
2017,04,10,01,39,8.70
2017,04,10,01,40,8.70
2017,04,10,01,41,8.70
2017,04,10,01,42,8.70
2017,04,10,01,43,8.70
2017,04,10,01,44,8.70
2017,04,10,01,45,8.70
2017,04,10,01,46,8.70
2017,04,10,01,47,8.70
2017,04,10,01,48,8.70
2017,04,10,01,49,8.70
2017,04,10,01,50,8.70
2017,04,10,01,51,8.70
2017,04,10,01,52,8.70
2017,04,10,01,53,8.70
2017,04,10,01,54,8.70
2017,04,10,01,55,8.70
2017,04,10,01,56,8.60
2017,04,10,01,57,8.60
2017,04,10,01,58,8.60
2017,04,10,01,59,8.60
2017,04,10,02,00,8.60
2017,04,10,02,01,8.60
2017,04,10,02,02,8.60
2017,04,10,02,03,8.60
2017,04,10,02,04,8.60
2017,04,10,02,05,8.60
2017,04,10,02,06,8.60
2017,04,10,02,07,8.60
2017,04,10,02,08,8.60
2017,04,10,02,09,8.60
2017,04,10,02,10,8.50
2017,04,10,02,11,8.50
2017,04,10,02,12,8.50
2017,04,10,02,13,8.50
2017,04,10,02,14,8.50
2017,04,10,02,15,8.40
2017,04,10,02,16,8.40
2017,04,10,02,17,8.40
2017,04,10,02,18,8.40
2017,04,10,02,19,8.40
2017,04,10,02,20,8.40
2017,04,10,02,21,8.40
2017,04,10,02,22,8.30
2017,04,10,02,23,8.30
2017,04,10,02,24,8.30
2017,04,10,02,25,8.30
2017,04,10,02,26,8.30
2017,04,10,02,27,8.30
2017,04,10,02,28,8.30
2017,04,10,02,29,8.30
2017,04,10,02,30,8.30
2017,04,10,02,31,8.30
2017,04,10,02,32,8.30
2017,04,10,02,33,8.30
2017,04,10,02,34,8.20
2017,04,10,02,35,8.20
2017,04,10,02,36,8.20
2017,04,10,02,37,8.20
2017,04,10,02,38,8.20
2017,04,10,02,39,8.20
2017,04,10,02,40,8.20
2017,04,10,02,41,8.20
2017,04,10,02,42,8.10
2017,04,10,02,43,8.10
2017,04,10,02,44,8.10
2017,04,10,02,45,8.10
2017,04,10,02,46,8.10
2017,04,10,02,47,8.10
2017,04,10,02,48,8.10
2017,04,10,02,49,8.00
2017,04,10,02,50,8.00
2017,04,10,02,51,8.00
2017,04,10,02,52,8.00
2017,04,10,02,53,8.00
2017,04,10,02,54,8.00
2017,04,10,02,55,8.00
2017,04,10,02,56,8.00
2017,04,10,02,57,8.00
2017,04,10,02,58,8.00
2017,04,10,02,59,8.00
2017,04,10,03,00,8.00
2017,04,10,03,01,7.90
2017,04,10,03,02,7.90
2017,04,10,03,03,7.90
2017,04,10,03,04,7.90
2017,04,10,03,05,7.90
2017,04,10,03,06,7.90
2017,04,10,03,07,7.80
2017,04,10,03,08,7.80
2017,04,10,03,09,7.80
2017,04,10,03,10,7.80
2017,04,10,03,11,7.80
2017,04,10,03,12,7.80
2017,04,10,03,13,7.80
2017,04,10,03,14,7.70
2017,04,10,03,15,7.70
2017,04,10,03,16,7.70
2017,04,10,03,17,7.70
2017,04,10,03,18,7.70
2017,04,10,03,19,7.70
2017,04,10,03,20,7.70
2017,04,10,03,21,7.60
2017,04,10,03,22,7.60
2017,04,10,03,23,7.60
2017,04,10,03,24,7.60
2017,04,10,03,25,7.60
2017,04,10,03,26,7.60
2017,04,10,03,27,7.60
2017,04,10,03,28,7.60
2017,04,10,03,29,7.60
2017,04,10,03,30,7.60
2017,04,10,03,31,7.60
2017,04,10,03,32,7.60
2017,04,10,03,33,7.60
2017,04,10,03,34,7.50
2017,04,10,03,35,7.50
2017,04,10,03,36,7.50
2017,04,10,03,37,7.50
2017,04,10,03,38,7.50
2017,04,10,03,39,7.50
2017,04,10,03,40,7.50
2017,04,10,03,41,7.50
2017,04,10,03,42,7.50
2017,04,10,03,43,7.50
2017,04,10,03,44,7.50
2017,04,10,03,45,7.50
2017,04,10,03,46,7.50
2017,04,10,03,47,7.50
2017,04,10,03,48,7.50
2017,04,10,03,49,7.50
2017,04,10,03,50,7.50
2017,04,10,03,51,7.40
2017,04,10,03,52,7.40
2017,04,10,03,53,7.40
2017,04,10,03,54,7.40
2017,04,10,03,55,7.40
2017,04,10,03,56,7.40
2017,04,10,03,57,7.40
2017,04,10,03,58,7.40
2017,04,10,03,59,7.40
2017,04,10,04,00,7.40
2017,04,10,04,01,7.40
2017,04,10,04,02,7.40
2017,04,10,04,03,7.30
2017,04,10,04,04,7.30
2017,04,10,04,05,7.30
2017,04,10,04,06,7.30
2017,04,10,04,07,7.30
2017,04,10,04,08,7.30
2017,04,10,04,09,7.30
2017,04,10,04,10,7.20
2017,04,10,04,11,7.20
2017,04,10,04,12,7.20
2017,04,10,04,13,7.20
2017,04,10,04,14,7.20
2017,04,10,04,15,7.20
2017,04,10,04,16,7.20
2017,04,10,04,17,7.20
2017,04,10,04,18,7.10
2017,04,10,04,19,7.10
2017,04,10,04,20,7.10
2017,04,10,04,21,7.10
2017,04,10,04,22,7.10
2017,04,10,04,23,7.10
2017,04,10,04,24,7.10
2017,04,10,04,25,7.10
2017,04,10,04,26,7.10
2017,04,10,04,27,7.00
2017,04,10,04,28,7.00
2017,04,10,04,29,7.00
2017,04,10,04,30,7.00
2017,04,10,04,31,7.00
2017,04,10,04,32,7.00
2017,04,10,04,33,7.00
2017,04,10,04,34,7.00
2017,04,10,04,35,7.00
2017,04,10,04,36,7.00
2017,04,10,04,37,7.00
2017,04,10,04,38,7.00
2017,04,10,04,39,7.00
2017,04,10,04,40,6.90
2017,04,10,04,41,6.90
2017,04,10,04,42,6.90
2017,04,10,04,43,6.90
2017,04,10,04,44,6.90
2017,04,10,04,45,6.90
2017,04,10,04,46,6.90
2017,04,10,04,47,6.90
2017,04,10,04,48,6.90
2017,04,10,04,49,6.90
2017,04,10,04,50,6.90
2017,04,10,04,51,6.90
2017,04,10,04,52,6.90
2017,04,10,04,53,6.90
2017,04,10,04,54,6.90
2017,04,10,04,55,6.90
2017,04,10,04,56,6.90
2017,04,10,04,57,6.90
2017,04,10,04,58,6.90
2017,04,10,04,59,6.90
2017,04,10,05,00,6.90
2017,04,10,05,01,6.90
2017,04,10,05,02,6.90
2017,04,10,05,03,6.90
2017,04,10,05,04,6.90
2017,04,10,05,05,6.90
2017,04,10,05,06,6.90
2017,04,10,05,07,6.90
2017,04,10,05,08,6.90
2017,04,10,05,09,6.90
2017,04,10,05,10,6.90
2017,04,10,05,11,6.90
2017,04,10,05,12,6.90
2017,04,10,05,13,6.90
2017,04,10,05,14,6.90
2017,04,10,05,15,6.90
2017,04,10,05,16,6.90
2017,04,10,05,17,6.90
2017,04,10,05,18,6.90
2017,04,10,05,19,6.90
2017,04,10,05,20,6.90
2017,04,10,05,21,6.90
2017,04,10,05,22,6.90
2017,04,10,05,23,6.90
2017,04,10,05,24,6.90
2017,04,10,05,25,6.90
2017,04,10,05,26,6.90
2017,04,10,05,27,6.90
2017,04,10,05,28,6.90
2017,04,10,05,29,6.90
2017,04,10,05,30,6.90
2017,04,10,05,31,6.90
2017,04,10,05,32,6.90
2017,04,10,05,33,6.90
2017,04,10,05,34,6.90
2017,04,10,05,35,6.90
2017,04,10,05,36,6.90
2017,04,10,05,37,6.90
2017,04,10,05,38,6.90
2017,04,10,05,39,6.90
2017,04,10,05,40,6.90
2017,04,10,05,41,6.90
2017,04,10,05,42,6.90
2017,04,10,05,43,6.90
2017,04,10,05,44,6.90
2017,04,10,05,45,6.80
2017,04,10,05,46,6.80
2017,04,10,05,47,6.80
2017,04,10,05,48,6.80
2017,04,10,05,49,6.80
2017,04,10,05,50,6.80
2017,04,10,05,51,6.80
2017,04,10,05,52,6.80
2017,04,10,05,53,6.80
2017,04,10,05,54,6.80
2017,04,10,05,55,6.80
2017,04,10,05,56,6.80
2017,04,10,05,57,6.80
2017,04,10,05,58,6.80
2017,04,10,05,59,6.80
2017,04,10,06,00,6.80
2017,04,10,06,01,6.70
2017,04,10,06,02,6.70
2017,04,10,06,03,6.70
2017,04,10,06,04,6.70
2017,04,10,06,05,6.70
2017,04,10,06,06,6.70
2017,04,10,06,07,6.70
2017,04,10,06,08,6.70
2017,04,10,06,09,6.70
2017,04,10,06,10,6.70
2017,04,10,06,11,6.70
2017,04,10,06,12,6.70
2017,04,10,06,13,6.70
2017,04,10,06,14,6.60
2017,04,10,06,15,6.60
2017,04,10,06,16,6.60
2017,04,10,06,17,6.60
2017,04,10,06,18,6.60
2017,04,10,06,19,6.60
2017,04,10,06,20,6.50
2017,04,10,06,21,6.50
2017,04,10,06,22,6.50
2017,04,10,06,23,6.40
2017,04,10,06,24,6.40
2017,04,10,06,25,6.40
2017,04,10,06,26,6.40
2017,04,10,06,27,6.40
2017,04,10,06,28,6.30
2017,04,10,06,29,6.30
2017,04,10,06,30,6.40
2017,04,10,06,31,6.30
2017,04,10,06,32,6.30
2017,04,10,06,33,6.30
2017,04,10,06,34,6.30
2017,04,10,06,35,6.30
2017,04,10,06,36,6.30
2017,04,10,06,37,6.30
2017,04,10,06,38,6.30
2017,04,10,06,39,6.30
2017,04,10,06,40,6.20
2017,04,10,06,41,6.20
2017,04,10,06,42,6.20
2017,04,10,06,43,6.10
2017,04,10,06,44,6.10
2017,04,10,06,45,6.10
2017,04,10,06,46,6.00
2017,04,10,06,47,6.00
2017,04,10,06,48,5.90
2017,04,10,06,49,5.90
2017,04,10,06,50,5.90
2017,04,10,06,51,5.80
2017,04,10,06,52,5.80
2017,04,10,06,53,5.80
2017,04,10,06,54,5.70
2017,04,10,06,55,5.70
2017,04,10,06,56,5.70
2017,04,10,06,57,5.60
2017,04,10,06,58,5.60
2017,04,10,06,59,5.50
2017,04,10,07,00,5.50
2017,04,10,07,01,5.40
2017,04,10,07,02,5.40
2017,04,10,07,03,5.40
2017,04,10,07,04,5.30
2017,04,10,07,05,5.30
2017,04,10,07,06,5.30
2017,04,10,07,07,5.20
2017,04,10,07,08,5.20
2017,04,10,07,09,5.20
2017,04,10,07,10,5.20
2017,04,10,07,11,5.10
2017,04,10,07,12,5.10
2017,04,10,07,13,5.10
2017,04,10,07,14,5.10
2017,04,10,07,15,5.00
2017,04,10,07,16,5.00
2017,04,10,07,17,4.90
2017,04,10,07,18,4.90
2017,04,10,07,19,4.90
2017,04,10,07,20,4.90
2017,04,10,07,21,4.80
2017,04,10,07,22,4.80
2017,04,10,07,23,4.80
2017,04,10,07,24,4.80
2017,04,10,07,25,4.80
2017,04,10,07,26,4.80
2017,04,10,07,27,4.80
2017,04,10,07,28,4.80
2017,04,10,07,29,4.80
2017,04,10,07,30,4.80
2017,04,10,07,31,4.80
2017,04,10,07,32,4.80
2017,04,10,07,33,4.80
2017,04,10,07,34,4.80
2017,04,10,07,35,4.80
2017,04,10,07,36,4.90
2017,04,10,07,37,4.90
2017,04,10,07,38,4.90
2017,04,10,07,39,4.90
2017,04,10,07,40,4.90
2017,04,10,07,41,4.90
2017,04,10,07,42,4.90
2017,04,10,07,43,4.90
2017,04,10,07,44,4.90
2017,04,10,07,45,4.90
2017,04,10,07,46,5.00
2017,04,10,07,47,5.00
2017,04,10,07,48,5.10
2017,04,10,07,49,5.20
2017,04,10,07,50,5.20
2017,04,10,07,51,5.30
2017,04,10,07,52,5.40
2017,04,10,07,53,5.50
2017,04,10,07,54,5.60
2017,04,10,07,55,5.70
2017,04,10,07,56,5.90
2017,04,10,07,57,6.00
2017,04,10,07,58,6.20
2017,04,10,07,59,6.30
2017,04,10,08,00,6.50
2017,04,10,08,01,6.80
2017,04,10,08,02,7.00
2017,04,10,08,03,7.20
2017,04,10,08,04,7.30
2017,04,10,08,05,7.40
2017,04,10,08,06,7.40
2017,04,10,08,07,7.40
2017,04,10,08,08,7.50
2017,04,10,08,09,7.50
2017,04,10,08,10,7.60
2017,04,10,08,11,7.70
2017,04,10,08,12,7.80
2017,04,10,08,13,7.90
2017,04,10,08,14,8.00
2017,04,10,08,15,8.10
2017,04,10,08,16,8.20
2017,04,10,08,17,8.30
2017,04,10,08,18,8.40
2017,04,10,08,19,8.50
2017,04,10,08,20,8.60
2017,04,10,08,21,8.50
2017,04,10,08,22,8.50
2017,04,10,08,23,8.50
2017,04,10,08,24,8.50
2017,04,10,08,25,8.60
2017,04,10,08,26,8.60
2017,04,10,08,27,8.70
2017,04,10,08,28,8.80
2017,04,10,08,29,8.80
2017,04,10,08,30,8.80
2017,04,10,08,31,8.90
2017,04,10,08,32,8.80
2017,04,10,08,33,8.80
2017,04,10,08,34,8.80
2017,04,10,08,35,8.80
2017,04,10,08,36,8.80
2017,04,10,08,37,8.90
2017,04,10,08,38,9.00
2017,04,10,08,39,9.10
2017,04,10,08,40,9.20
2017,04,10,08,41,9.30
2017,04,10,08,42,9.30
2017,04,10,08,43,9.30
2017,04,10,08,44,9.40
2017,04,10,08,45,9.50
2017,04,10,08,46,9.50
2017,04,10,08,47,9.60
2017,04,10,08,48,9.60
2017,04,10,08,49,9.80
2017,04,10,08,50,9.90
2017,04,10,08,51,10.10
2017,04,10,08,52,10.20
2017,04,10,08,53,10.30
2017,04,10,08,54,10.30
2017,04,10,08,55,10.50
2017,04,10,08,56,10.60
2017,04,10,08,57,10.70
2017,04,10,08,58,10.80
2017,04,10,08,59,10.80
2017,04,10,09,00,10.80
2017,04,10,09,01,10.80
2017,04,10,09,02,10.80
2017,04,10,09,03,10.80
2017,04,10,09,04,10.90
2017,04,10,09,05,10.90
2017,04,10,09,06,10.90
2017,04,10,09,07,10.90
2017,04,10,09,08,11.00
2017,04,10,09,09,11.10
2017,04,10,09,10,11.20
2017,04,10,09,11,11.20
2017,04,10,09,12,11.10
2017,04,10,09,13,11.10
2017,04,10,09,14,11.10
2017,04,10,09,15,11.00
2017,04,10,09,16,11.00
2017,04,10,09,17,10.90
2017,04,10,09,18,10.80
2017,04,10,09,19,10.80
2017,04,10,09,20,10.70
2017,04,10,09,21,10.60
2017,04,10,09,22,10.40
2017,04,10,09,23,10.30
2017,04,10,09,24,10.20
2017,04,10,09,25,10.10
2017,04,10,09,26,10.00
2017,04,10,09,27,10.00
2017,04,10,09,28,9.90
2017,04,10,09,29,9.80
2017,04,10,09,30,9.80
2017,04,10,09,31,9.80
2017,04,10,09,32,9.80
2017,04,10,09,33,9.90
2017,04,10,09,34,9.90
2017,04,10,09,35,9.90
2017,04,10,09,36,10.00
2017,04,10,09,37,10.00
2017,04,10,09,38,10.00
2017,04,10,09,39,9.90
2017,04,10,09,40,9.90
2017,04,10,09,41,9.90
2017,04,10,09,42,9.90
2017,04,10,09,43,9.90
2017,04,10,09,44,9.90
2017,04,10,09,45,9.90
2017,04,10,09,46,10.00
2017,04,10,09,47,10.00
2017,04,10,09,48,10.00
2017,04,10,09,49,10.00
2017,04,10,09,50,10.00
2017,04,10,09,51,10.10
2017,04,10,09,52,10.10
2017,04,10,09,53,10.00
2017,04,10,09,54,10.00
2017,04,10,09,55,9.90
2017,04,10,09,56,9.90
2017,04,10,09,57,9.90
2017,04,10,09,58,9.90
2017,04,10,09,59,9.80
2017,04,10,10,00,9.80
2017,04,10,10,01,9.80
2017,04,10,10,02,9.70
2017,04,10,10,03,9.70
2017,04,10,10,04,9.80
2017,04,10,10,05,9.80
2017,04,10,10,06,9.80
2017,04,10,10,07,9.80
2017,04,10,10,08,9.80
2017,04,10,10,09,9.80
2017,04,10,10,10,9.80
2017,04,10,10,11,9.80
2017,04,10,10,12,9.70
2017,04,10,10,13,9.70
2017,04,10,10,14,9.60
2017,04,10,10,15,9.60
2017,04,10,10,16,9.60
2017,04,10,10,17,9.60
2017,04,10,10,18,9.50
2017,04,10,10,19,9.50
2017,04,10,10,20,9.50
2017,04,10,10,21,9.50
2017,04,10,10,22,9.60
2017,04,10,10,23,9.60
2017,04,10,10,24,9.70
2017,04,10,10,25,9.70
2017,04,10,10,26,9.80
2017,04,10,10,27,9.80
2017,04,10,10,28,9.80
2017,04,10,10,29,9.80
2017,04,10,10,30,9.80
2017,04,10,10,31,9.80
2017,04,10,10,32,9.80
2017,04,10,10,33,9.70
2017,04,10,10,34,9.70
2017,04,10,10,35,9.60
2017,04,10,10,36,9.50
2017,04,10,10,37,9.40
2017,04,10,10,38,9.40
2017,04,10,10,39,9.30
2017,04,10,10,40,9.20
2017,04,10,10,41,9.10
2017,04,10,10,42,9.00
2017,04,10,10,43,9.00
2017,04,10,10,44,9.10
2017,04,10,10,45,9.10
2017,04,10,10,46,9.10
2017,04,10,10,47,9.10
2017,04,10,10,48,9.20
2017,04,10,10,49,9.20
2017,04,10,10,50,9.20
2017,04,10,10,51,9.20
2017,04,10,10,52,9.20
2017,04,10,10,53,9.20
2017,04,10,10,54,9.20
2017,04,10,10,55,9.10
2017,04,10,10,56,9.10
2017,04,10,10,57,9.00
2017,04,10,10,58,8.90
2017,04,10,10,59,8.80
2017,04,10,11,00,8.80
2017,04,10,11,01,8.70
2017,04,10,11,02,8.70
2017,04,10,11,03,8.70
2017,04,10,11,04,8.70
2017,04,10,11,05,8.60
2017,04,10,11,06,8.70
2017,04,10,11,07,8.70
2017,04,10,11,08,8.70
2017,04,10,11,09,8.70
2017,04,10,11,10,8.70
2017,04,10,11,11,8.70
2017,04,10,11,12,8.70
2017,04,10,11,13,8.70
2017,04,10,11,14,8.70
2017,04,10,11,15,8.70
2017,04,10,11,16,8.70
2017,04,10,11,17,8.70
2017,04,10,11,18,8.60
2017,04,10,11,19,8.60
2017,04,10,11,20,8.60
2017,04,10,11,21,8.60
2017,04,10,11,22,8.60
2017,04,10,11,23,8.60
2017,04,10,11,24,8.60
2017,04,10,11,25,8.60
2017,04,10,11,26,8.60
2017,04,10,11,27,8.60
2017,04,10,11,28,8.70
2017,04,10,11,29,8.70
2017,04,10,11,30,8.70
2017,04,10,11,31,8.70
2017,04,10,11,32,8.70
2017,04,10,11,33,8.70
2017,04,10,11,34,8.70
2017,04,10,11,35,8.70
2017,04,10,11,36,8.80
2017,04,10,11,37,8.80
2017,04,10,11,38,8.80
2017,04,10,11,39,8.80
2017,04,10,11,40,8.80
2017,04,10,11,41,8.70
2017,04,10,11,42,8.70
2017,04,10,11,43,8.70
2017,04,10,11,44,8.70
2017,04,10,11,45,8.70
2017,04,10,11,46,8.60
2017,04,10,11,47,8.60
2017,04,10,11,48,8.60
2017,04,10,11,49,8.60
2017,04,10,11,50,8.60
2017,04,10,11,51,8.60
2017,04,10,11,52,8.50
2017,04,10,11,53,8.50
2017,04,10,11,54,8.50
2017,04,10,11,55,8.50
2017,04,10,11,56,8.50
2017,04,10,11,57,8.50
2017,04,10,11,58,8.60
2017,04,10,11,59,8.60
2017,04,10,12,00,8.70
2017,04,10,12,01,8.70
2017,04,10,12,02,8.70
2017,04,10,12,03,8.80
2017,04,10,12,04,8.80
2017,04,10,12,05,8.80
2017,04,10,12,06,8.90
2017,04,10,12,07,9.00
2017,04,10,12,08,9.10
2017,04,10,12,09,9.20
2017,04,10,12,10,9.30
2017,04,10,12,11,9.50
2017,04,10,12,12,9.60
2017,04,10,12,13,9.60
2017,04,10,12,14,9.70
2017,04,10,12,15,9.80
2017,04,10,12,16,9.90
2017,04,10,12,17,10.00
2017,04,10,12,18,10.10
2017,04,10,12,19,10.10
2017,04,10,12,20,10.10
2017,04,10,12,21,10.10
2017,04,10,12,22,10.10
2017,04,10,12,23,10.10
2017,04,10,12,24,10.10
2017,04,10,12,25,10.10
2017,04,10,12,26,10.10
2017,04,10,12,27,10.10
2017,04,10,12,28,10.10
2017,04,10,12,29,10.10
2017,04,10,12,30,10.10
2017,04,10,12,31,10.10
2017,04,10,12,32,10.20
2017,04,10,12,33,10.20
2017,04,10,12,34,10.20
2017,04,10,12,35,10.20
2017,04,10,12,36,10.20
2017,04,10,12,37,10.30
2017,04,10,12,38,10.30
2017,04,10,12,39,10.40
2017,04,10,12,40,10.40
2017,04,10,12,41,10.40
2017,04,10,12,42,10.40
2017,04,10,12,43,10.30
2017,04,10,12,44,10.30
2017,04,10,12,45,10.20
2017,04,10,12,46,10.20
2017,04,10,12,47,10.20
2017,04,10,12,48,10.10
2017,04,10,12,49,10.10
2017,04,10,12,50,10.00
2017,04,10,12,51,10.00
2017,04,10,12,52,10.00
2017,04,10,12,53,10.10
2017,04,10,12,54,10.10
2017,04,10,12,55,10.10
2017,04,10,12,56,10.20
2017,04,10,12,57,10.20
2017,04,10,12,58,10.30
2017,04,10,12,59,10.30
2017,04,10,13,00,10.40
2017,04,10,13,01,10.40
2017,04,10,13,02,10.50
2017,04,10,13,03,10.50
2017,04,10,13,04,10.50
2017,04,10,13,05,10.50
2017,04,10,13,06,10.50
2017,04,10,13,07,10.40
2017,04,10,13,08,10.40
2017,04,10,13,09,10.30
2017,04,10,13,10,10.30
2017,04,10,13,11,10.30
2017,04,10,13,12,10.30
2017,04,10,13,13,10.30
2017,04,10,13,14,10.30
2017,04,10,13,15,10.30
2017,04,10,13,16,10.30
2017,04,10,13,17,10.40
2017,04,10,13,18,10.50
2017,04,10,13,19,10.60
2017,04,10,13,20,10.80
2017,04,10,13,21,11.10
2017,04,10,13,22,11.30
2017,04,10,13,23,11.60
2017,04,10,13,24,11.80
2017,04,10,13,25,12.00
2017,04,10,13,26,12.20
2017,04,10,13,27,12.20
2017,04,10,13,28,12.10
2017,04,10,13,29,12.10
2017,04,10,13,30,12.00
2017,04,10,13,31,12.00
2017,04,10,13,32,11.90
2017,04,10,13,33,11.90
2017,04,10,13,34,11.80
2017,04,10,13,35,11.80
2017,04,10,13,36,11.70
2017,04,10,13,37,11.70
2017,04,10,13,38,11.60
2017,04,10,13,39,11.40
2017,04,10,13,40,11.30
2017,04,10,13,41,11.20
2017,04,10,13,42,11.10
2017,04,10,13,43,11.10
2017,04,10,13,44,11.10
2017,04,10,13,45,11.00
2017,04,10,13,46,11.00
2017,04,10,13,47,10.90
2017,04,10,13,48,10.70
2017,04,10,13,49,10.60
2017,04,10,13,50,10.50
2017,04,10,13,51,10.30
2017,04,10,13,52,10.20
2017,04,10,13,53,10.20
2017,04,10,13,54,10.10
2017,04,10,13,55,10.00
2017,04,10,13,56,10.00
2017,04,10,13,57,10.00
2017,04,10,13,58,10.00
2017,04,10,13,59,10.00
2017,04,10,14,00,10.10
2017,04,10,14,01,10.10
2017,04,10,14,02,10.10
2017,04,10,14,03,10.20
2017,04,10,14,04,10.20
2017,04,10,14,05,10.20
2017,04,10,14,06,10.20
2017,04,10,14,07,10.20
2017,04,10,14,08,10.20
2017,04,10,14,09,10.20
2017,04,10,14,10,10.20
2017,04,10,14,11,10.20
2017,04,10,14,12,10.20
2017,04,10,14,13,10.20
2017,04,10,14,14,10.20
2017,04,10,14,15,10.20
2017,04,10,14,16,10.10
2017,04,10,14,17,10.10
2017,04,10,14,18,10.10
2017,04,10,14,19,10.10
2017,04,10,14,20,10.00
2017,04,10,14,21,10.00
2017,04,10,14,22,9.90
2017,04,10,14,23,9.90
2017,04,10,14,24,9.80
2017,04,10,14,25,9.80
2017,04,10,14,26,9.70
2017,04,10,14,27,9.60
2017,04,10,14,28,9.60
2017,04,10,14,29,9.60
2017,04,10,14,30,9.60
2017,04,10,14,31,9.50
2017,04,10,14,32,9.50
2017,04,10,14,33,9.50
2017,04,10,14,34,9.50
2017,04,10,14,35,9.50
2017,04,10,14,36,9.50
2017,04,10,14,37,9.50
2017,04,10,14,38,9.40
2017,04,10,14,39,9.40
2017,04,10,14,40,9.40
2017,04,10,14,41,9.40
2017,04,10,14,42,9.40
2017,04,10,14,43,9.50
2017,04,10,14,44,9.50
2017,04,10,14,45,9.60
2017,04,10,14,46,9.60
2017,04,10,14,47,9.60
2017,04,10,14,48,9.70
2017,04,10,14,49,9.80
2017,04,10,14,50,9.80
2017,04,10,14,51,9.90
2017,04,10,14,52,10.00
2017,04,10,14,53,10.10
2017,04,10,14,54,10.20
2017,04,10,14,55,10.30
2017,04,10,14,56,10.40
2017,04,10,14,57,10.60
2017,04,10,14,58,10.70
2017,04,10,14,59,10.90
2017,04,10,15,00,11.10
2017,04,10,15,01,11.20
2017,04,10,15,02,11.40
2017,04,10,15,03,11.60
2017,04,10,15,04,11.80
2017,04,10,15,05,12.00
2017,04,10,15,06,12.10
2017,04,10,15,07,12.10
2017,04,10,15,08,12.10
2017,04,10,15,09,12.10
2017,04,10,15,10,12.10
2017,04,10,15,11,12.00
2017,04,10,15,12,12.00
2017,04,10,15,13,11.90
2017,04,10,15,14,11.80
2017,04,10,15,15,11.80
2017,04,10,15,16,11.70
2017,04,10,15,17,11.60
2017,04,10,15,18,11.60
2017,04,10,15,19,11.50
2017,04,10,15,20,11.50
2017,04,10,15,21,11.40
2017,04,10,15,22,11.40
2017,04,10,15,23,11.40
2017,04,10,15,24,11.40
2017,04,10,15,25,11.30
2017,04,10,15,26,11.30
2017,04,10,15,27,11.30
2017,04,10,15,28,11.30
2017,04,10,15,29,11.30
2017,04,10,15,30,11.30
2017,04,10,15,31,11.30
2017,04,10,15,32,11.30
2017,04,10,15,33,11.20
2017,04,10,15,34,11.20
2017,04,10,15,35,11.20
2017,04,10,15,36,11.20
2017,04,10,15,37,11.20
2017,04,10,15,38,11.30
2017,04,10,15,39,11.30
2017,04,10,15,40,11.30
2017,04,10,15,41,11.30
2017,04,10,15,42,11.30
2017,04,10,15,43,11.30
2017,04,10,15,44,11.30
2017,04,10,15,45,11.40
2017,04,10,15,46,11.40
2017,04,10,15,47,11.50
2017,04,10,15,48,11.70
2017,04,10,15,49,12.00
2017,04,10,15,50,12.20
2017,04,10,15,51,12.40
2017,04,10,15,52,12.40
2017,04,10,15,53,12.50
2017,04,10,15,54,12.50
2017,04,10,15,55,12.50
2017,04,10,15,56,12.50
2017,04,10,15,57,12.40
2017,04,10,15,58,12.20
2017,04,10,15,59,12.10
2017,04,10,16,00,12.00
2017,04,10,16,01,11.90
2017,04,10,16,02,11.80
2017,04,10,16,03,11.80
2017,04,10,16,04,11.70
2017,04,10,16,05,11.60
2017,04,10,16,06,11.50
2017,04,10,16,07,11.40
2017,04,10,16,08,11.40
2017,04,10,16,09,11.30
2017,04,10,16,10,11.30
2017,04,10,16,11,11.20
2017,04,10,16,12,11.10
2017,04,10,16,13,11.00
2017,04,10,16,14,10.90
2017,04,10,16,15,10.80
2017,04,10,16,16,10.70
2017,04,10,16,17,10.60
2017,04,10,16,18,10.50
2017,04,10,16,19,10.50
2017,04,10,16,20,10.40
2017,04,10,16,21,10.40
2017,04,10,16,22,10.40
2017,04,10,16,23,10.40
2017,04,10,16,24,10.40
2017,04,10,16,25,10.40
2017,04,10,16,26,10.50
2017,04,10,16,27,10.50
2017,04,10,16,28,10.60
2017,04,10,16,29,10.70
2017,04,10,16,30,10.70
2017,04,10,16,31,10.80
2017,04,10,16,32,10.90
2017,04,10,16,33,10.90
2017,04,10,16,34,10.90
2017,04,10,16,35,10.90
2017,04,10,16,36,10.90
2017,04,10,16,37,10.80
2017,04,10,16,38,10.80
2017,04,10,16,39,10.80
2017,04,10,16,40,10.80
2017,04,10,16,41,10.80
2017,04,10,16,42,10.80
2017,04,10,16,43,10.80
2017,04,10,16,44,10.90
2017,04,10,16,45,10.90
2017,04,10,16,46,11.00
2017,04,10,16,47,11.10
2017,04,10,16,48,11.20
2017,04,10,16,49,11.30
2017,04,10,16,50,11.40
2017,04,10,16,51,11.50
2017,04,10,16,52,11.60
2017,04,10,16,53,11.70
2017,04,10,16,54,11.80
2017,04,10,16,55,11.80
2017,04,10,16,56,11.90
2017,04,10,16,57,11.80
2017,04,10,16,58,11.70
2017,04,10,16,59,11.60
2017,04,10,17,00,11.60
2017,04,10,17,01,11.50
2017,04,10,17,02,11.50
2017,04,10,17,03,11.60
2017,04,10,17,04,11.60
2017,04,10,17,05,11.70
2017,04,10,17,06,11.80
2017,04,10,17,07,11.80
2017,04,10,17,08,11.80
2017,04,10,17,09,11.80
2017,04,10,17,10,11.60
2017,04,10,17,11,11.40
2017,04,10,17,12,11.30
2017,04,10,17,13,11.10
2017,04,10,17,14,11.00
2017,04,10,17,15,10.90
2017,04,10,17,16,10.80
2017,04,10,17,17,10.80
2017,04,10,17,18,10.80
2017,04,10,17,19,10.80
2017,04,10,17,20,10.80
2017,04,10,17,21,10.80
2017,04,10,17,22,10.80
2017,04,10,17,23,10.80
2017,04,10,17,24,10.70
2017,04,10,17,25,10.70
2017,04,10,17,26,10.60
2017,04,10,17,27,10.60
2017,04,10,17,28,10.50
2017,04,10,17,29,10.50
2017,04,10,17,30,10.40
2017,04,10,17,31,10.40
2017,04,10,17,32,10.40
2017,04,10,17,33,10.30
2017,04,10,17,34,10.30
2017,04,10,17,35,10.30
2017,04,10,17,36,10.30
2017,04,10,17,37,10.30
2017,04,10,17,38,10.20
2017,04,10,17,39,10.20
2017,04,10,17,40,10.20
2017,04,10,17,41,10.10
2017,04,10,17,42,10.10
2017,04,10,17,43,10.00
2017,04,10,17,44,10.00
2017,04,10,17,45,10.00
2017,04,10,17,46,9.90
2017,04,10,17,47,9.90
2017,04,10,17,48,9.80
2017,04,10,17,49,9.80
2017,04,10,17,50,9.80